| time (UTC) | temp F | wind direction | speed knots | gust knots | rain 1hr in | rain 24hr in | rain mn in | humidity % | barometer mb |
| 20260503175419 | 59 | 194 | 4.3 | 9.6 | 0.00 | 0.00 | 0.00 | 75 | |
| 20260503174919 | 58 | 153 | 5.2 | 9.6 | 0.00 | 0.00 | 0.00 | 75 | |
| 20260503174420 | 59 | 251 | 4.3 | 9.6 | 0.00 | 0.00 | 0.00 | 75 | |
| 20260503173916 | 59 | 208 | 4.3 | 9.6 | 0.00 | 0.00 | 0.00 | 75 | |
| 20260503173425 | 59 | 218 | 5.2 | 12.2 | 0.00 | 0.00 | 0.00 | 76 | |
| 20260503173418 | 59 | 238 | 5.2 | 12.2 | 0.00 | 0.00 | 0.00 | 76 | |
| 20260503172415 | 58 | 184 | 5.2 | 10.4 | 0.00 | 0.00 | 0.00 | 77 | |
| 20260503171915 | 58 | 198 | 6.1 | 12.2 | 0.00 | 0.00 | 0.00 | 77 | |
| 20260503171415 | 58 | 163 | 5.2 | 12.2 | 0.00 | 0.00 | 0.00 | 78 | |
| 20260503170915 | 58 | 184 | 4.3 | 8.7 | 0.00 | 0.00 | 0.00 | 79 | |
| 20260503170414 | 58 | 227 | 4.3 | 10.4 | 0.00 | 0.00 | 0.00 | 80 | |
| 20260503150913 | 57 | 166 | 2.6 | 8.7 | 0.00 | 0.00 | 0.00 | 79 | |
| 20260503150412 | 56 | 192 | 1.7 | 5.2 | 0.00 | 0.00 | 0.00 | 79 | |
| 20260503130922 | 55 | 179 | 1.7 | 4.3 | 0.00 | 0.00 | 0.00 | 81 | |
| 20260503130914 | 55 | 217 | 1.7 | 4.3 | 0.00 | 0.00 | 0.00 | 81 | |
| 20260503110407 | 54 | 207 | 2.6 | 7.0 | 0.00 | 0.00 | 0.00 | 80 | |
| 20260503090354 | 55 | 176 | 2.6 | 6.1 | 0.00 | 0.00 | 0.00 | 80 | |
| 20260503081353 | 55 | 271 | 0.9 | 6.1 | 0.00 | 0.00 | 0.00 | 80 | |
| 20260503080852 | 55 | 252 | 1.7 | 4.3 | 0.00 | 0.00 | 0.00 | 80 | |
| 20260503080354 | 55 | 241 | 2.6 | 6.1 | 0.00 | 0.00 | 0.00 | 80 | |
| 20260503072851 | 55 | 250 | 3.5 | 8.7 | 0.00 | 0.00 | 0.00 | 80 | |
| 20260503072402 | 55 | 249 | 2.6 | 7.0 | 0.00 | 0.00 | 0.00 | 81 | |
| 20260503072350 | 55 | 240 | 3.5 | 8.7 | 0.00 | 0.00 | 0.00 | 81 | |
| 20260503071851 | 55 | 188 | 2.6 | 7.8 | 0.00 | 0.00 | 0.00 | 81 | |
| 20260503071516 | 55 | 203 | 1.7 | 3.5 | 0.00 | 0.00 | 0.00 | 81 | |
| 20260503070352 | 55 | 202 | 2.6 | 7.0 | 0.00 | 0.00 | 0.00 | 81 | |
| 20260503054349 | 55 | 288 | 1.7 | 6.1 | 0.00 | 0.00 | 0.00 | 79 | |
| 20260503053850 | 55 | 196 | 1.7 | 4.3 | 0.00 | 0.00 | 0.00 | 79 | |
| 20260503053349 | 55 | 228 | 0.9 | 4.3 | 0.00 | 0.00 | 0.00 | 79 | |
| 20260503052857 | 55 | 182 | 0.9 | 5.2 | 0.00 | 0.00 | 0.00 | 80 | |
| 20260503052850 | 55 | 214 | 0.9 | 5.2 | 0.00 | 0.00 | 0.00 | 79 | |
| 20260503051850 | 55 | 306 | 1.7 | 5.2 | 0.00 | 0.00 | 0.00 | 79 | |
| 20260503051349 | 55 | 254 | 2.6 | 7.8 | 0.00 | 0.00 | 0.00 | 79 | |
| 20260503050859 | 55 | 220 | 2.6 | 5.2 | 0.00 | 0.00 | 0.00 | 80 | |
| 20260503050849 | 55 | 204 | 2.6 | 7.8 | 0.00 | 0.00 | 0.00 | 79 | |
| 20260503050349 | 55 | 192 | 1.7 | 5.2 | 0.00 | 0.00 | 0.00 | 80 | |
| 20260503045349 | 55 | 250 | 2.6 | 8.7 | 0.00 | 0.00 | 0.00 | 80 | |
| 20260503044849 | 55 | 227 | 2.6 | 8.7 | 0.00 | 0.00 | 0.00 | 80 | |
| 20260503044348 | 55 | 259 | 2.6 | 7.8 | 0.00 | 0.00 | 0.00 | 80 | |
| 20260503043849 | 55 | 205 | 1.7 | 6.1 | 0.00 | 0.00 | 0.00 | 80 | |
| 20260503043349 | 55 | 150 | 0.9 | 4.3 | 0.00 | 0.00 | 0.00 | 80 | |
| 20260503042848 | 55 | 234 | 1.7 | 4.3 | 0.00 | 0.00 | 0.00 | 80 | |
| 20260503042350 | 55 | 175 | 0.9 | 3.5 | 0.00 | 0.00 | 0.00 | 80 | |
| 20260503041849 | 55 | 190 | 0.9 | 3.5 | 0.00 | 0.00 | 0.00 | 80 | |
| 20260503041348 | 55 | 214 | 1.7 | 7.8 | 0.00 | 0.00 | 0.00 | 79 | |
| 20260503040850 | 55 | 200 | 2.6 | 7.8 | 0.00 | 0.00 | 0.00 | 80 | |
| 20260503040357 | 55 | 167 | 3.5 | 10.4 | 0.00 | 0.00 | 0.00 | 79 | |
| 20260503040348 | 55 | 270 | 3.5 | 7.8 | 0.00 | 0.00 | 0.00 | 79 | |
| 20260503035349 | 55 | 223 | 4.3 | 10.4 | 0.00 | 0.00 | 0.00 | 79 | |
| 20260503034907 | 55 | 165 | 4.3 | 10.4 | 0.00 | 0.00 | 0.00 | 79 | |
| 20260503034848 | 55 | 240 | 4.3 | 10.4 | 0.00 | 0.00 | 0.00 | 79 | |
| 20260503034522 | 55 | 218 | 3.5 | 9.6 | 0.00 | 0.00 | 0.00 | 79 | |
| 20260503034029 | 55 | 228 | 3.5 | 9.6 | 0.00 | 0.00 | 0.00 | 79 | |
| 20260503033848 | 55 | 200 | 4.3 | 7.8 | 0.00 | 0.00 | 0.00 | 79 | |
| 20260503032349 | 55 | 244 | 3.5 | 8.7 | 0.00 | 0.00 | 0.00 | 78 | |
| 20260503031848 | 55 | 229 | 2.6 | 8.7 | 0.00 | 0.00 | 0.00 | 78 | |
| 20260503031347 | 55 | 187 | 3.5 | 10.4 | 0.00 | 0.00 | 0.00 | 78 | |
| 20260503030846 | 56 | 238 | 3.5 | 10.4 | 0.00 | 0.00 | 0.00 | 77 | |
| 20260503030347 | 56 | 230 | 3.5 | 11.3 | 0.00 | 0.00 | 0.00 | 77 | |
| 20260503025846 | 56 | 215 | 5.2 | 11.3 | 0.00 | 0.00 | 0.00 | 77 | |
| 20260503025345 | 56 | 205 | 4.3 | 9.6 | 0.00 | 0.00 | 0.00 | 76 | |
| 20260503024845 | 56 | 279 | 4.3 | 11.3 | 0.00 | 0.00 | 0.00 | 76 | |
| 20260503024346 | 56 | 187 | 4.3 | 12.2 | 0.00 | 0.00 | 0.00 | 76 | |
| 20260503023847 | 56 | 188 | 5.2 | 12.2 | 0.00 | 0.00 | 0.00 | 75 | |
| 20260503023345 | 57 | 200 | 4.3 | 11.3 | 0.00 | 0.00 | 0.00 | 75 | |
| 20260503022846 | 57 | 170 | 3.5 | 8.7 | 0.00 | 0.00 | 0.00 | 75 | |
| 20260503022343 | 57 | 182 | 4.3 | 12.2 | 0.00 | 0.00 | 0.00 | 74 | |
| 20260503021845 | 57 | 182 | 5.2 | 12.2 | 0.00 | 0.00 | 0.00 | 74 | |
| 20260503021345 | 57 | 168 | 5.2 | 11.3 | 0.00 | 0.00 | 0.00 | 74 | |
| 20260503020850 | 58 | 238 | 6.1 | 11.3 | 0.00 | 0.00 | 0.00 | 73 | |
| 20260503020843 | 57 | 191 | 6.1 | 11.3 | 0.00 | 0.00 | 0.00 | 74 | |
| 20260503015844 | 58 | 225 | 6.1 | 12.2 | 0.00 | 0.00 | 0.00 | 73 | |
| 20260503015343 | 58 | 153 | 6.1 | 12.2 | 0.00 | 0.00 | 0.00 | 73 | |
| 20260503014843 | 58 | 207 | 6.1 | 12.2 | 0.00 | 0.00 | 0.00 | 72 | |
| 20260503014345 | 59 | 233 | 6.1 | 11.3 | 0.00 | 0.00 | 0.00 | 72 | |
| 20260503013844 | 59 | 202 | 7.0 | 13.0 | 0.00 | 0.00 | 0.00 | 71 | |
| 20260503013343 | 59 | 151 | 7.0 | 13.0 | 0.00 | 0.00 | 0.00 | 71 | |
| 20260503012843 | 59 | 213 | 6.1 | 13.0 | 0.00 | 0.00 | 0.00 | 71 | |
| 20260503012344 | 60 | 205 | 6.1 | 13.9 | 0.00 | 0.00 | 0.00 | 70 | |
| 20260503011844 | 60 | 235 | 6.1 | 13.9 | 0.00 | 0.00 | 0.00 | 70 | |
| 20260503011343 | 60 | 234 | 5.2 | 13.0 | 0.00 | 0.00 | 0.00 | 70 | |
| 20260503010843 | 61 | 180 | 5.2 | 13.0 | 0.00 | 0.00 | 0.00 | 70 | |
| 20260503010344 | 61 | 261 | 5.2 | 13.0 | 0.00 | 0.00 | 0.00 | 69 | |
| 20260503005841 | 61 | 225 | 6.1 | 13.0 | 0.00 | 0.00 | 0.00 | 69 | |
| 20260503005342 | 61 | 213 | 6.1 | 13.0 | 0.00 | 0.00 | 0.00 | 69 | |
| 20260503004843 | 61 | 157 | 7.0 | 16.5 | 0.00 | 0.00 | 0.00 | 69 | |
| 20260503004341 | 61 | 202 | 8.7 | 16.5 | 0.00 | 0.00 | 0.00 | 68 | |
| 20260503003841 | 61 | 186 | 8.7 | 16.5 | 0.00 | 0.00 | 0.00 | 68 | |
| 20260503003341 | 61 | 175 | 7.0 | 16.5 | 0.00 | 0.00 | 0.00 | 68 | |
| 20260503002841 | 62 | 219 | 7.0 | 16.5 | 0.00 | 0.00 | 0.00 | 68 | |
| 20260503002342 | 62 | 202 | 7.8 | 16.5 | 0.00 | 0.00 | 0.00 | 68 | |
| 20260503001842 | 62 | 212 | 7.0 | 14.8 | 0.00 | 0.00 | 0.00 | 67 | |
| 20260503001342 | 62 | 168 | 6.1 | 18.2 | 0.00 | 0.00 | 0.00 | 67 | |
| 20260503000841 | 63 | 241 | 5.2 | 18.2 | 0.00 | 0.00 | 0.00 | 68 | |
| 20260503000341 | 62 | 267 | 6.1 | 15.6 | 0.00 | 0.00 | 0.00 | 69 | |
| 20260502235841 | 62 | 247 | 7.0 | 15.6 | 0.00 | 0.00 | 0.00 | 68 | |
| 20260502235347 | 62 | 281 | 7.0 | 16.5 | 0.00 | 0.00 | 0.00 | 67 | |
| 20260502235339 | 62 | 201 | 7.8 | 16.5 | 0.00 | 0.00 | 0.00 | 68 | |
| 20260502235003 | 63 | 237 | 7.0 | 14.8 | 0.00 | 0.00 | 0.00 | 66 | |
| 20260502234341 | 63 | 213 | 7.0 | 15.6 | 0.00 | 0.00 | 0.00 | 67 | |
| 20260502233339 | 63 | 217 | 7.0 | 18.2 | 0.00 | 0.00 | 0.00 | 65 | |
| 20260502232840 | 64 | 233 | 7.0 | 18.2 | 0.00 | 0.00 | 0.00 | 65 | |
| 20260502232346 | 64 | 244 | 6.1 | 15.6 | 0.00 | 0.00 | 0.00 | 65 | |
| 20260502232339 | 64 | 171 | 6.1 | 15.6 | 0.00 | 0.00 | 0.00 | 65 | |
| 20260502231339 | 63 | 330 | 6.1 | 14.8 | 0.00 | 0.00 | 0.00 | 65 | |
| 20260502230841 | 64 | 210 | 6.1 | 13.0 | 0.00 | 0.00 | 0.00 | 66 | |
| 20260502230339 | 63 | 240 | 6.1 | 13.9 | 0.00 | 0.00 | 0.00 | 65 | |
| 20260502225839 | 64 | 242 | 6.1 | 13.9 | 0.00 | 0.00 | 0.00 | 64 | |
| 20260502225346 | 64 | 235 | 7.0 | 14.8 | 0.00 | 0.00 | 0.00 | 66 | |
| 20260502225339 | 64 | 192 | 7.0 | 13.0 | 0.00 | 0.00 | 0.00 | 66 | |
| 20260502225005 | 63 | 176 | 7.0 | 16.5 | 0.00 | 0.00 | 0.00 | 66 | |
| 20260502223840 | 63 | 237 | 7.0 | 16.5 | 0.00 | 0.00 | 0.00 | 66 | |
| 20260502223337 | 63 | 286 | 6.1 | 16.5 | 0.00 | 0.00 | 0.00 | 66 | |
| 20260502222838 | 63 | 227 | 7.0 | 13.0 | 0.00 | 0.00 | 0.00 | 66 | |
| 20260502222345 | 63 | 199 | 7.8 | 16.5 | 0.00 | 0.00 | 0.00 | 68 | |
| 20260502222338 | 63 | 210 | 7.0 | 13.9 | 0.00 | 0.00 | 0.00 | 67 | |
| 20260502221346 | 62 | 232 | 8.7 | 16.5 | 0.00 | 0.00 | 0.00 | 68 | |
| 20260502221336 | 62 | 277 | 8.7 | 16.5 | 0.00 | 0.00 | 0.00 | 68 | |
| 20260502220836 | 62 | 201 | 8.7 | 16.5 | 0.00 | 0.00 | 0.00 | 68 | |
| 20260502220458 | 62 | 240 | 8.7 | 17.4 | 0.00 | 0.00 | 0.00 | 68 | |
| 20260502215343 | 62 | 222 | 7.8 | 14.8 | 0.00 | 0.00 | 0.00 | 68 | |
| 20260502215336 | 62 | 244 | 7.8 | 17.4 | 0.00 | 0.00 | 0.00 | 69 | |
| 20260502214335 | 63 | 215 | 7.0 | 14.8 | 0.00 | 0.00 | 0.00 | 68 | |
| 20260502213835 | 63 | 241 | 7.8 | 13.9 | 0.00 | 0.00 | 0.00 | 69 | |
| 20260502213336 | 62 | 223 | 7.0 | 14.8 | 0.00 | 0.00 | 0.00 | 69 | |
| 20260502212836 | 62 | 190 | 7.8 | 14.8 | 0.00 | 0.00 | 0.00 | 70 | |
| 20260502212333 | 62 | 234 | 7.8 | 14.8 | 0.00 | 0.00 | 0.00 | 69 | |
| 20260502211835 | 63 | 215 | 7.8 | 14.8 | 0.00 | 0.00 | 0.00 | 69 | |
| 20260502211333 | 63 | 196 | 7.8 | 16.5 | 0.00 | 0.00 | 0.00 | 69 | |
| 20260502210833 | 63 | 200 | 7.8 | 17.4 | 0.00 | 0.00 | 0.00 | 69 | |
| 20260502210336 | 63 | 240 | 7.0 | 17.4 | 0.00 | 0.00 | 0.00 | 70 | |
| 20260502205832 | 63 | 277 | 6.1 | 15.6 | 0.00 | 0.00 | 0.00 | 70 | |
| 20260502205333 | 62 | 284 | 7.0 | 15.6 | 0.00 | 0.00 | 0.00 | 72 | |
| 20260502204834 | 62 | 293 | 7.0 | 13.9 | 0.00 | 0.00 | 0.00 | 71 | |
| 20260502204333 | 62 | 244 | 7.0 | 13.9 | 0.00 | 0.00 | 0.00 | 71 | |
| 20260502203834 | 62 | 248 | 7.0 | 13.9 | 0.00 | 0.00 | 0.00 | 72 | |
| 20260502203331 | 62 | 190 | 7.8 | 14.8 | 0.00 | 0.00 | 0.00 | 72 | |
| 20260502202832 | 62 | 242 | 7.0 | 14.8 | 0.00 | 0.00 | 0.00 | 71 | |
| 20260502202331 | 62 | 238 | 7.0 | 14.8 | 0.00 | 0.00 | 0.00 | 72 | |
| 20260502201831 | 62 | 215 | 7.0 | 14.8 | 0.00 | 0.00 | 0.00 | 72 | |
| 20260502201333 | 62 | 217 | 7.0 | 13.9 | 0.00 | 0.00 | 0.00 | 72 | |
| 20260502200831 | 62 | 236 | 7.0 | 13.0 | 0.00 | 0.00 | 0.00 | 72 | |
| 20260502200331 | 62 | 192 | 6.1 | 13.0 | 0.00 | 0.00 | 0.00 | 72 | |
| 20260502195830 | 62 | 194 | 6.1 | 11.3 | 0.00 | 0.00 | 0.00 | 73 | |
| 20260502195331 | 62 | 241 | 7.0 | 15.6 | 0.00 | 0.00 | 0.00 | 73 | |
| 20260502194832 | 62 | 297 | 6.1 | 15.6 | 0.00 | 0.00 | 0.00 | 72 | |
| 20260502194330 | 62 | 167 | 6.1 | 12.2 | 0.00 | 0.00 | 0.00 | 73 | |
| 20260502193839 | 61 | 172 | 7.0 | 14.8 | 0.00 | 0.00 | 0.00 | 74 | |
| 20260502193830 | 62 | 262 | 6.1 | 12.2 | 0.00 | 0.00 | 0.00 | 73 | |
| 20260502193329 | 61 | 180 | 7.0 | 14.8 | 0.00 | 0.00 | 0.00 | 74 | |
| 20260502192330 | 61 | 175 | 5.2 | 12.2 | 0.00 | 0.00 | 0.00 | 76 | |
| 20260502191829 | 61 | 242 | 6.1 | 13.9 | 0.00 | 0.00 | 0.00 | 76 | |
| 20260502191329 | 61 | 180 | 7.0 | 13.9 | 0.00 | 0.00 | 0.00 | 76 | |
| 20260502190830 | 60 | 169 | 7.0 | 13.0 | 0.00 | 0.00 | 0.00 | 76 | |
| 20260502190332 | 60 | 200 | 6.1 | 13.0 | 0.00 | 0.00 | 0.00 | 77 | |
| 20260502185838 | 60 | 188 | 6.1 | 13.0 | 0.00 | 0.00 | 0.00 | 78 | |
| 20260502185831 | 60 | 172 | 6.1 | 11.3 | 0.00 | 0.00 | 0.00 | 78 | |
| 20260502185451 | 59 | 184 | 6.1 | 13.0 | 0.00 | 0.00 | 0.00 | 78 | |
| 20260502184830 | 59 | 223 | 7.0 | 13.0 | 0.00 | 0.00 | 0.00 | 78 | |
| 20260502183827 | 59 | 190 | 6.1 | 13.9 | 0.00 | 0.00 | 0.00 | 79 | |
| 20260502183336 | 59 | 184 | 7.0 | 13.9 | 0.00 | 0.00 | 0.00 | 79 | |
| 20260502183328 | 59 | 225 | 7.0 | 13.9 | 0.00 | 0.00 | 0.00 | 79 | |
| 20260502182327 | 59 | 242 | 6.1 | 13.9 | 0.00 | 0.00 | 0.00 | 80 | |
| 20260502181951 | 58 | 188 | 5.2 | 11.3 | 0.00 | 0.00 | 0.00 | 81 | |
| 20260502181836 | 58 | 170 | 5.2 | 11.3 | 0.00 | 0.00 | 0.00 | 81 | |
| 20260502181828 | 58 | 180 | 6.1 | 13.9 | 0.00 | 0.00 | 0.00 | 80 | |
| 20260502180325 | 58 | 167 | 5.2 | 13.0 | 0.00 | 0.00 | 0.00 | 82 |